IZ8GMP-13 Weather Reports


time (UTC)temp
C
wind
direction
speed
KPH
gust
KPH
rain 1hr
cm
rain 24hr
cm
rain mn
cm
humidity
%
barometer
mb
20260507093655 26 0.0 0.0 0.00 0.00 0.00 21 1010.5
20260507091651 21 0.0 0.0 0.00 0.00 0.00 46 1010.8
20260507085647 21 0.0 0.0 0.00 0.00 0.00 50 1011.2
20260507081639 21 0.0 0.0 0.00 0.00 0.00 52 1011.9
20260507075635 21 0.0 0.0 0.00 0.00 0.00 48 1012.0
20260507065623 21 0.0 0.0 0.00 0.00 0.00 54 1012.9
20260507063619 20 0.0 0.0 0.00 0.00 0.00 58 1013.4
20260507061615 18 0.0 0.0 0.00 0.00 0.00 66 1013.6
20260507055611 18 0.0 0.0 0.00 0.00 0.00 67 1013.4
20260507053608 18 0.0 0.0 0.00 0.00 0.00 67 1013.2
20260507051604 17 0.0 0.0 0.00 0.00 0.00 71 1013.5
20260507045600 17 0.0 0.0 0.00 0.00 0.00 72 1013.6
20260507043556 17 0.0 0.0 0.00 0.00 0.00 74 1013.8
20260507041552 17 0.0 0.0 0.00 0.00 0.00 76 1013.9
20260507035548 17 0.0 0.0 0.00 0.00 0.00 75 1013.8
20260507033544 17 0.0 0.0 0.00 0.00 0.00 73 1013.6
20260507031540 17 0.0 0.0 0.00 0.00 0.00 73 1013.4
20260507025536 17 0.0 0.0 0.00 0.00 0.00 73 1013.3
20260507023532 17 0.0 0.0 0.00 0.00 0.00 79 1013.6
20260507021528 17 0.0 0.0 0.00 0.00 0.00 78 1013.8
20260507015524 17 0.0 0.0 0.00 0.00 0.00 78 1013.4
20260507013520 17 0.0 0.0 0.00 0.00 0.00 78 1013.8
20260507011516 17 0.0 0.0 0.00 0.00 0.00 78 1013.9
20260507005512 17 0.0 0.0 0.00 0.00 0.00 77 1014.1
20260507003508 17 0.0 0.0 0.00 0.00 0.00 74 1014.0
20260507001504 18 0.0 0.0 0.00 0.00 0.00 64 1014.0
20260506235500 18 0.0 0.0 0.00 0.00 0.00 55 1013.9
20260506233456 18 0.0 0.0 0.00 0.00 0.00 59 1014.0
20260506231452 18 0.0 0.0 0.00 0.00 0.00 62 1013.9
20260506225448 18 0.0 0.0 0.00 0.00 0.00 65 1013.8
20260506223444 18 0.0 0.0 0.00 0.00 0.00 69 1013.6
20260506221440 18 0.0 0.0 0.00 0.00 0.00 71 1013.7
20260506215436 18 0.0 0.0 0.00 0.00 0.00 70 1013.8
20260506213433 18 0.0 0.0 0.00 0.00 0.00 69 1013.6
20260506211429 17 0.0 0.0 0.00 0.00 0.00 69 1013.2
20260506205425 17 0.0 0.0 0.00 0.00 0.00 68 1013.4
20260506203421 17 0.0 0.0 0.00 0.00 0.00 69 1014.0
20260506201417 17 0.0 0.0 0.00 0.00 0.00 68 1014.6
20260506195413 18 0.0 0.0 0.00 0.00 0.00 67 1014.8
20260506191405 18 0.0 0.0 0.00 0.00 0.00 69 1014.9
20260506185401 18 0.0 0.0 0.00 0.00 0.00 70 1014.8
20260506183357 18 0.0 0.0 0.00 0.00 0.00 72 1014.5
20260506181353 18 0.0 0.0 0.00 0.00 0.00 71 1014.5
20260506175349 18 0.0 0.0 0.00 0.00 0.00 70 1014.1
20260506173345 18 0.0 0.0 0.00 0.00 0.00 70 1014.0
20260506171341 18 0.0 0.0 0.00 0.00 0.00 69 1014.1
20260506165337 19 0.0 0.0 0.00 0.00 0.00 70 1014.2
20260506163333 19 0.0 0.0 0.00 0.00 0.00 68 1014.4
20260506161329 20 0.0 0.0 0.00 0.00 0.00 66 1014.6
20260506155325 20 0.0 0.0 0.00 0.00 0.00 68 1014.6
20260506153322 20 0.0 0.0 0.00 0.00 0.00 68 1014.9
20260506151317 20 0.0 0.0 0.00 0.00 0.00 68 1014.7
20260506145313 20 0.0 0.0 0.00 0.00 0.00 67 1015.0
20260506143310 20 0.0 0.0 0.00 0.00 0.00 68 1014.3
20260506141306 21 0.0 0.0 0.00 0.00 0.00 66 1014.4
20260506135302 21 0.0 0.0 0.00 0.00 0.00 63 1014.4
20260506133258 21 0.0 0.0 0.00 0.00 0.00 60 1014.1
20260506131254 21 0.0 0.0 0.00 0.00 0.00 62 1014.5
20260506125250 21 0.0 0.0 0.00 0.00 0.00 64 1014.9
20260506123246 21 0.0 0.0 0.00 0.00 0.00 63 1014.9
20260506121243 22 0.0 0.0 0.00 0.00 0.00 58 1014.9
20260506115239 22 0.0 0.0 0.00 0.00 0.00 53 1014.9
20260506113236 22 0.0 0.0 0.00 0.00 0.00 47 1015.1
20260506111232 22 0.0 0.0 0.00 0.00 0.00 48 1015.3
20260506105229 23 0.0 0.0 0.00 0.00 0.00 45 1015.3